Weather History for KHKY - October, 2011

Change the Weather History Date:

Monday, October 31, 2011

  Actual Average Record
Temperature  
Mean Temperature 44 °F -  
Max Temperature 55 °F 65 °F 86 °F (1950)
Min Temperature 32 °F 45 °F 25 °F (1954)
Degree Days  
Heating Degree Days 22    
Moisture  
Dew Point 34 °F    
Average Humidity 86    
Maximum Humidity 100    
Minimum Humidity 47    
Precipitation  
Precipitation 0.00 in - - ()
Sea Level Pressure  
Sea Level Pressure 30.26 in    
Wind  
Wind Speed 2 mph (NE)    
Max Wind Speed 5 mph    
Max Gust Speed -    
Visibility 5 miles    
Events Fog    
Averages and records for this station are not official NWS values.
T = Trace of Precipitation, MM = Missing Value Source: NWS Daily Summary

Daily Weather History Graph

Daily Weather History Graph

Search for Another Location

Airport or City:

Trip Planner

Search our weather history database for the weather conditions in past years. The results will help you decide how hot, cold, wet, or windy it might be!

Date:

Astronomy

Oct. 31, 2011 Rise Set
Actual Time 7:46 AM EDT 6:31 PM EDT
Civil Twilight 7:20 AM EDT 6:57 PM EDT
Nautical Twilight 6:49 AM EDT 7:27 PM EDT
Astronomical Twilight 6:20 AM EDT 7:57 PM EDT
Moon 12:48 PM EDT (10/31) 11:09 PM EDT (10/31)
Length of Visible Light 11h 37m
Length of Day
10h 44m
Waxing Crescent, 29% of the Moon is Illuminated
Oct 31
Waxing Crescent
Nov 2
First Quarter
Nov 10
Full
Nov 18
Last Quarter
Nov 25
New

Hourly Weather History & Observations

Time (EDT) Temp. Windchill Dew Point Humidity Pressure Visibility Wind Dir Wind Speed Gust Speed Precip Events Conditions
12:53 AM 39.0 °F - 36.0 °F 89% 30.27 in 10.0 mi Calm Calm - N/A   Clear
1:53 AM 37.9 °F 35.5 °F 37.0 °F 97% 30.28 in 8.0 mi NNE 3.5 mph - N/A   Clear
2:53 AM 37.9 °F - 35.1 °F 89% 30.27 in 10.0 mi Calm Calm - N/A   Clear
3:19 AM 35.6 °F - 33.8 °F 93% 30.30 in 2.5 mi Calm Calm - N/A   Partly Cloudy
3:22 AM 33.8 °F - 33.8 °F 100% 30.30 in 1.0 mi Calm Calm - N/A   Mist
3:32 AM 35.6 °F 32.8 °F 33.8 °F 93% 30.30 in 1.2 mi NE 3.5 mph - N/A   Partly Cloudy
3:35 AM 35.6 °F 32.8 °F 33.8 °F 93% 30.30 in 3.0 mi NNE 3.5 mph - N/A   Partly Cloudy
3:40 AM 35.6 °F 32.8 °F 33.8 °F 93% 30.30 in 1.5 mi NNE 3.5 mph - N/A   Partly Cloudy
3:46 AM 33.8 °F 30.8 °F 33.8 °F 100% 30.29 in 0.2 mi NNE 3.5 mph - N/A Fog Fog
3:53 AM 33.1 °F 30.0 °F 33.1 °F 100% 30.27 in 0.2 mi NNE 3.5 mph - N/A Fog Fog
4:01 AM 33.8 °F 30.8 °F 33.8 °F 100% 30.29 in 1.0 mi NE 3.5 mph - N/A   Mist
4:05 AM 33.8 °F - 33.8 °F 100% 30.29 in 2.5 mi Calm Calm - N/A   Partly Cloudy
4:12 AM 33.8 °F 30.8 °F 33.8 °F 100% 30.29 in 4.0 mi NE 3.5 mph - N/A   Partly Cloudy
4:44 AM 33.8 °F 29.6 °F 33.8 °F 100% 30.28 in 2.5 mi NE 4.6 mph - N/A   Clear
4:51 AM 33.8 °F 29.6 °F 33.8 °F 100% 30.28 in 5.0 mi NE 4.6 mph - N/A   Clear
4:53 AM 34.0 °F 31.0 °F 33.1 °F 96% 30.26 in 5.0 mi NE 3.5 mph - N/A   Clear
4:59 AM 35.6 °F 31.7 °F 33.8 °F 93% 30.28 in 1.5 mi NNE 4.6 mph - N/A   Partly Cloudy
5:11 AM 33.8 °F 30.8 °F 33.8 °F 100% 30.28 in 0.2 mi NNE 3.5 mph - N/A Fog Fog
5:28 AM 33.8 °F 30.8 °F 33.8 °F 100% 30.28 in 1.0 mi NE 3.5 mph - N/A   Mist
5:33 AM 33.8 °F 30.8 °F 33.8 °F 100% 30.28 in 2.0 mi NNE 3.5 mph - N/A   Scattered Clouds
5:49 AM 33.8 °F 30.8 °F 33.8 °F 100% 30.28 in 0.8 mi NE 3.5 mph - N/A   Clear
5:53 AM 33.1 °F - 33.1 °F 100% 30.26 in 1.2 mi Calm Calm - N/A   Clear
5:56 AM 32.0 °F - 32.0 °F 100% 30.28 in 1.0 mi Calm Calm - N/A   Mist
6:04 AM 33.8 °F - 32.0 °F 93% 30.28 in 0.5 mi Calm Calm - N/A Fog Fog
6:09 AM 33.8 °F - 32.0 °F 93% 30.28 in 1.2 mi Calm Calm - N/A   Partly Cloudy
6:17 AM 32.0 °F - 32.0 °F 100% 30.28 in 2.0 mi Calm Calm - N/A   Partly Cloudy
6:26 AM 32.0 °F - 30.2 °F 93% 30.28 in 1.5 mi Calm Calm - N/A   Partly Cloudy
6:38 AM 33.8 °F - 30.2 °F 87% 30.28 in 3.0 mi Calm Calm - N/A   Clear
6:53 AM 33.1 °F - 30.9 °F 92% 30.26 in 6.0 mi Calm Calm - N/A   Clear
7:53 AM 34.0 °F - 33.1 °F 96% 30.26 in 7.0 mi Calm Calm - N/A   Clear
8:53 AM 37.0 °F 34.5 °F 36.0 °F 96% 30.26 in 5.0 mi ENE 3.5 mph - N/A   Clear
9:53 AM 39.9 °F - 37.0 °F 89% 30.27 in 8.0 mi Calm Calm - N/A   Clear
10:53 AM 46.0 °F - 37.9 °F 73% 30.26 in 10.0 mi Calm Calm - N/A   Clear
11:53 AM 50.0 °F - 35.1 °F 57% 30.25 in 10.0 mi Variable 4.6 mph - N/A   Clear
12:53 PM 52.0 °F - 35.1 °F 53% 30.23 in 10.0 mi Calm Calm - N/A   Clear
1:53 PM 54.0 °F - 34.0 °F 47% 30.20 in 10.0 mi SSW 4.6 mph - N/A   Clear
2:53 PM 55.0 °F - 35.1 °F 47% 30.18 in 10.0 mi Variable 3.5 mph - N/A   Partly Cloudy
3:53 PM 55.0 °F - 35.1 °F 47% 30.17 in 10.0 mi Calm Calm - N/A   Overcast
4:53 PM 54.0 °F - 35.1 °F 49% 30.16 in 10.0 mi Calm Calm - N/A   Overcast
5:53 PM 53.1 °F - 36.0 °F 52% 30.17 in 10.0 mi Calm Calm - N/A   Clear
6:53 PM 50.0 °F - 34.0 °F 54% 30.17 in 10.0 mi Calm Calm - N/A   Clear
7:53 PM 48.0 °F - 35.1 °F 61% 30.19 in 10.0 mi ENE 3.5 mph - N/A   Clear
8:53 PM 43.0 °F - 37.0 °F 80% 30.20 in 10.0 mi Calm Calm - N/A   Clear
9:53 PM 41.0 °F - 37.4 °F 87% 30.22 in 10.0 mi Calm Calm - N/A   Clear
10:53 PM 39.9 °F - 37.0 °F 89% 30.22 in 10.0 mi Calm Calm - N/A   Clear
11:53 PM 39.0 °F - 36.0 °F 89% 30.22 in 8.0 mi Calm Calm - N/A   Clear